Погода в Жана-Ауле

Россия / Республика Алтай     49˚50′45″N   88˚55′21″E
темп.,
°C
ветер,
м/с
пор.,
м/с
влажн.,
%
обл.,
%
осадки,
мм/ч
давл.,
гПа
погр.,
м
17 января, вс
вс1701:00−20˚ююв114217 0.0 103220
04:00−19˚юв114158 0.0 103020
07:00−18˚ююв114060 0.0 102720
10:00−15˚ююв113954 0.0 102420
13:00−10˚ююв116377 0.0 101925
16:00−10˚ю125472 0.0 101722
19:00−13˚юз124183 0.0 101921
22:00−13˚зюз224073 0.0 102021
18 января, пн
пн1801:00−16˚з113936 0.0 102121
04:00−17˚ю11367 0.0 102120
07:00−19˚ю11404 0.0 102120
10:00−17˚ююз114836 0.0 102120
13:00−13˚с116023 0.0 101728
16:00−15˚в00645 0.0 101620
19:00−18˚ююз11463 0.0 101820
22:00−19˚ююз11410 0.0 101820
19 января, вт
вт1901:00−19˚ююз114710 0.0 101820
04:00−19˚юз01590 0.0 101820
07:00−20˚ююз00663 0.0 101820
10:00−18˚ююв006824 0.0 101820
13:00−14˚св117713 0.0 101731
16:00−15˚вюв11810 0.0 101720
19:00−18˚ю11830 0.0 102120
22:00−18˚ю11790 0.0 102220
20 января, ср
ср2001:00−19˚ю018011 0.0 102320
04:00−18˚ююз11730 0.0 102320
07:00−15˚ю117050 0.0 102220
10:00−13˚ю2264100 0.0 102222
13:00−10˚ю1277100 0.0 101991
16:00−9˚ююз127878 0.0 101940
19:00−12˚ю227288 0.0 102222
22:00−14˚ююз227398 0.0 102321
21 января, чт
чт2101:00−14˚ююз227295 0.0 102421
04:00−16˚ююз127287 0.0 102520
07:00−17˚ю227270 0.0 102620
10:00−16˚ююз22739 0.0 102521
13:00−11˚ююв127833 0.0 1020108
16:00−11˚ю228099 0.0 101733
19:00−15˚ю337489 0.0 101928
22:00−14˚ю337795 0.0 101830